Reflectivity
-15 35 35 8 29 -20 -20 -18 -6 -20 -20 -18 29 17 -14 -4 20 13 9 21 38 25
-13 3 29 34 32 28 31 14 2 -20 -20 -9 21 -7 18 17 -19 1 22 13 24 12
-20 26 26 25 29 28 31 22 20 -16 -11 3 8 -7 24 23 -2 2 -15 5 -13 -14
-20 -20 -18 12 18 8 30 3 -6 24 3 17 16 13 8 23 16 -20 22 9 -20 -20
4 -6 -9 7 8 16 16 -5 32 31 1 15 13 9 8 29 19 -20 19 -20 -18 -20
17 12 18 20 20 22 27 22 30 32 29 10 7 21 28 16 1 3 16 25 -13 -20
26 21 27 24 21 23 25 30 28 33 29 33 38 28 12 24 -3 -1 -6 6 29 24
18 17 13 23 23 24 26 27 25 33 17 15 9 26 27 28 29 11 18 12 -7 0
27 22 22 26 39 34 26 29 34 37 30 28 20 28 22 28 16 33 30 23 26 0
27 22 17 28 21 31 24 32 37 42 28 21 16 20 22 33 16 34 31 27 37 38
28 27 20 27 32 28 36 43 42 41 37 28 35 24 22 25 13 18 43 38 38 31
25 26 13 28 23 29 33 28 37 29 30 20 23 22 18 35 -9 28 37 12 17 20
6 18 18 18 21 23 24 32 37 23 35 35 27 31 24 21 -9 -7 -17 1 10 13
11 5 18 14 15 15 17 17 22 21 28 24 14 15 19 17 26 20 15 -9 4 -0
Wind_Speed
23 14 16 18 15 13 14 15 18 20 20 23 21 20 20 16 16 17 17 22 19 15
15 19 14 18 15 13 16 14 20 22 21 22 23 23 22 17 21 19 20 19 20 16
19 16 9 11 17 15 17 18 20 20 22 21 21 22 23 19 21 21 17 17 21 19
18 18 16 14 14 11 16 18 19 19 20 21 21 21 20 20 21 22 22 19 20 22
18 18 18 16 15 14 11 10 18 19 19 20 21 22 23 21 17 19 21 20 19 22
19 19 19 18 18 15 14 12 11 12 11 20 19 19 19 20 19 19 20 20 19 19
16 18 16 18 18 18 17 14 13 11 14 14 11 7 19 21 20 20 20 20 20 19
17 15 17 16 18 16 18 18 16 14 16 15 15 11 12 6 19 20 19 18 18 18
15 15 15 14 10 17 15 15 21 13 12 12 9 16 18 15 7 1 15 15 16 16
9 12 15 13 15 16 14 14 13 14 13 10 10 16 18 17 9 10 8 8 2 10
14 12 11 12 14 11 8 10 10 9 9 10 10 12 13 18 9 10 8 7 5 6
13 11 15 13 11 8 7 8 9 12 11 10 9 14 12 10 7 5 3 5 4 6
14 15 12 13 9 9 7 10 9 10 8 9 6 7 10 9 6 5 4 5 4 6
13 12 12 11 11 11 10 7 8 5 8 6 5 5 8 10 4 4 4 1 2 4
Wind_Direction
212 212 215 208 200 194 194 191 190 196 196 197 197 190 186 189 195 197 202 198 209 218
205 215 212 212 215 207 207 193 193 196 198 200 199 197 188 191 190 195 205 207 209 207
25 13 327 231 227 216 216 208 193 195 197 196 200 199 198 199 196 197 205 205 207 209
29 29 36 34 11 314 237 220 207 195 194 197 197 197 198 203 202 198 205 206 208 211
32 32 34 29 21 16 22 13 230 198 192 196 199 196 196 199 198 200 204 203 204 211
29 31 27 25 17 19 18 31 31 35 212 194 191 193 200 199 197 199 204 204 202 205
24 28 25 24 20 16 10 12 41 37 57 43 25 215 204 203 202 202 205 203 205 207
23 17 27 20 18 13 13 3 8 30 45 46 42 20 2 307 204 202 198 199 199 205
19 23 23 26 344 22 11 346 17 1 34 47 48 21 14 359 12 56 203 199 203 201
20 27 23 10 22 13 354 356 348 5 14 34 45 37 9 353 9 42 43 53 266 211
12 20 22 20 21 10 349 4 338 327 354 15 31 23 30 344 20 34 3 56 16 54
10 359 29 16 12 343 350 329 328 14 332 357 358 356 27 330 16 15 8 5 55 21
3 2 359 358 347 357 356 358 8 316 308 347 335 345 342 355 14 4 337 357 40 93
354 354 352 342 354 354 343 339 343 321 335 302 336 343 0 335 358 321 289 48 338 45